[Iaude] MPEC G182: 2024 GY4 [a=1.86,e=0.49,i=7.0,H=29.5]

mpec at cfa.harvard.edu mpec at cfa.harvard.edu
Sat Apr 13 07:17:46 EDT 2024


M.P.E.C. 2024-G182                               Issued 2024 April 13, 11:16 UT

     The Minor Planet Electronic Circulars contain information on unusual
         minor planets, routine data on comets and natural satellites,
         and occasional editorial announcements.  They are published
    on behalf of Division F of the International Astronomical Union by the
          Minor Planet Center, Smithsonian Astrophysical Observatory,
                          Cambridge, MA 02138, U.S.A.
			  
             Prepared using the Tamkin Foundation Computer Network

                              MPC at CFA.HARVARD.EDU
            URL https://www.minorplanetcenter.net/    ISSN 1523-6714

                                    2024 GY4                                    


Observations:
     K24G04Y*1C2024 04 11.45884716 27 03.838+07 53 54.02         21.34GVEG182G96
     K24G04Y 1C2024 04 11.46407516 27 01.818+07 53 08.59         21.55GVEG182G96
     K24G04Y 1C2024 04 11.46930016 26 59.737+07 52 22.12         21.07GVEG182G96
     K24G04Y 1C2024 04 11.47450316 26 57.772+07 51 37.22         21.33GVEG182G96
     K24G04Y 1C2024 04 11.49895916 26 48.650+07 48 05.40         21.49GVEG182G96
     K24G04Y 1C2024 04 11.49937416 26 48.550+07 48 01.80         21.16GVEG182G96
     K24G04Y 1C2024 04 11.49978816 26 48.400+07 47 57.80         20.83GVEG182G96
     K24G04Y 1C2024 04 11.50020416 26 48.210+07 47 55.00               VEG182G96
     K24G04Y 1C2024 04 12.46903616 26 00.118+06 16 36.77         21.88GVEG182G96
     K24G04Y 1C2024 04 12.46980116 25 59.970+06 16 32.95         21.69GVEG182G96
     K24G04Y 1C2024 04 12.47056316 25 59.801+06 16 30.18         22.17GVEG182G96
     K24G04Y KC2024 04 13.43404416 25 31.192+05 29 37.29         22.7 GVEG182H01
     K24G04Y KC2024 04 13.44149216 25 29.873+05 29 20.72         22.7 GVEG182H01
     K24G04Y KC2024 04 13.44629516 25 29.024+05 29 10.11         22.5 GVEG182H01
     K24G04Y KC2024 04 13.45624316 25 27.276+05 28 47.80         22.3 GVEG182H01

Observer details:
G96 Mt. Lemmon Survey.  Observer H. Groeller.  Measurers T. Beuden, V. F.
    Carvajal, D. Fay, J. B. Fazekas, D. C. Fuls, A. R. Gibbs, A. D. Grauer, H.
    Groeller, J. K. Hogan, R. A. Kowalski, S. M. Larson, G. J. Leonard, D.
    Rankin, R. L. Seaman, F. C. Shelly, K. W. Wierzchos.  1.5-m reflector +
    10K CCD.
H01 Magdalena Ridge Observatory, Socorro.  Observers W. H. Ryan, E. V. Ryan.
    Measurer W. H. Ryan.  2.4-m f/8.9 Ritchey-Chretien + CCD.

Orbital elements:
2024 GY4                                                 Earth MOID = 0.0008 AU
Epoch 2024 Mar. 31.0 TT = JDT 2460400.5                 MPC                     
M   5.84800              (2000.0)            P               Q                  
n   0.38846139     Peri.  329.74643     -0.98095050     -0.18998106             
a   1.8602478      Node   199.42686     +0.19351528     -0.93745701             
e   0.4862276      Incl.    7.00065     +0.01696938     -0.29168741             
P   2.54           H   29.55          G   0.15           U   9                  
Residuals in seconds of arc
240411 G96  0.2-  0.0     240411 G96  0.3+  0.0     240412 G96  0.3+  0.1-
240411 G96  0.3+  0.5+    240411 G96  0.3+  0.5-    240413 H01  0.0   0.0
240411 G96  0.5-  0.3-    240411 G96  0.3-  0.3+    240413 H01  0.0   0.0
240411 G96  0.1+  0.2+    240412 G96  0.4-  0.5+    240413 H01  0.0   0.1+
240411 G96  0.4-  0.0     240412 G96  0.1+  0.3-    240413 H01  0.1-  0.1-

Ephemeris:
2024 GY4                 a,e,i = 1.86, 0.49, 7                   q = 0.9557
Date    TT    R. A. (2000) Decl.     Delta      r    Elong.  Phase     V
2024 03 14    04 16 40.0 -06 42 49   0.1362  0.9560    69.9   102.4    28.9
...
2024 03 29    04 24 34.9 -06 29 10   0.05983 0.9690    59.1   117.9    28.1
...
2024 04 06    04 25 10.6 -04 43 01   0.01830 0.9896    52.3   126.8    26.2
...
2024 04 12    16 26 30.8 +06 57 01   0.01306 1.0111   131.5    47.9    22.0
2024 04 13    16 25 46.7 +05 51 21   0.01825 1.0152   132.8    46.5    22.7
2024 04 14    16 25 18.0 +05 14 18   0.02346 1.0194   133.9    45.2    23.2
...
2024 04 20    16 23 18.5 +03 53 10   0.05480 1.0468   139.3    38.7    24.9
...
2024 04 28    16 20 02.3 +03 08 18   0.09731 1.0888   146.0    31.1    26.0
...
2024 05 13    16 11 47.9 +01 36 13   0.1830  1.1803   156.3    20.1    27.2

A. U. Tomatic                (C) Copyright 2024 MPC           M.P.E.C. 2024-G182





More information about the Iaude mailing list